Wind_Speed
1 1 1 1 2 3 4 4 4 4 4 3 2 3 2 3 3 4 4 4 5 4 4 5 5 5 5 5 5 4 5 5 5 5 5 6 6 6 6 6 7 7 7
1 1 1 1 2 3 4 5 5 4 5 4 4 4 3 3 4 4 5 5 6 6 6 6 6 6 6 5 5 5 5 6 7 7 7 7 7 7 7 7 8 8 8
1 2 2 2 2 3 4 4 5 5 5 4 4 4 4 4 5 5 5 6 6 7 7 7 7 7 7 7 7 7 7 7 8 8 8 8 7 8 9 8 8 8 9
1 2 3 3 3 3 4 4 5 5 5 4 4 5 4 5 5 5 6 7 7 6 7 7 8 8 8 7 8 8 8 9 9 8 9 8 8 8 8 9 9 9 9
1 2 3 3 4 4 4 5 5 5 5 5 5 5 6 6 6 7 7 7 7 8 8 8 8 9 8 8 9 9 9 10 11 10 10 10 10 9 9 9 10 10 9
2 3 3 3 4 5 5 5 6 6 7 7 7 7 7 7 8 8 8 9 9 9 9 10 9 9 9 10 10 10 11 11 11 11 11 11 11 11 10 10 10 10 10
3 3 3 4 4 5 5 6 6 7 7 8 8 8 9 9 9 9 9 10 10 10 10 11 11 10 10 11 12 12 12 11 12 12 13 13 12 12 12 12 12 12 12
4 4 4 5 5 6 6 7 7 8 8 8 9 9 10 10 10 10 10 11 11 12 11 11 11 12 12 12 12 12 13 13 13 14 14 14 13 13 13 14 14 14 14
5 6 6 6 6 7 7 7 8 8 9 9 9 9 9 10 11 11 11 12 12 12 12 12 12 13 14 14 14 14 14 14 14 15 15 16 16 15 15 16 16 15 15
7 7 7 7 7 8 8 8 8 9 8 9 9 9 9 10 10 10 11 12 13 13 13 13 14 14 15 16 16 16 16 16 16 15 16 16 16 17 17 16 16 16 16
9 9 9 9 9 10 9 9 9 9 9 9 10 11 11 11 11 12 12 13 14 14 15 15 16 16 17 17 17 17 17 17 17 17 17 17 17 18 17 17 17 17 17
9 10 10 12 12 11 11 11 11 11 11 11 11 12 12 12 13 13 13 14 15 16 16 17 17 17 18 18 18 18 18 18 18 18 18 18 18 18 18 18 18 18 18
10 11 11 12 13 13 13 13 13 13 13 13 13 13 13 14 14 15 15 15 16 17 17 18 18 19 19 19 19 19 18 18 18 18 18 18 18 18 19 19 18 18 18
12 12 13 13 14 14 15 15 15 15 15 14 14 14 14 15 15 15 15 16 17 17 18 19 19 20 19 19 20 19 19 19 19 19 19 19 19 19 20 20 19 19 19
14 14 15 15 15 16 16 16 16 16 16 16 16 16 16 17 16 16 16 17 17 18 19 19 19 19 20 20 20 20 20 20 20 19 19 19 20 20 19 19 19 19 20
16 16 16 16 17 17 18 17 18 18 18 18 18 18 17 18 18 18 18 18 18 18 18 19 20 20 20 20 20 20 20 20 20 20 21 21 20 19 19 19 19 19 19
18 18 18 18 19 19 19 19 19 19 20 20 20 19 19 19 19 19 19 19 19 19 19 20 20 20 20 20 21 21 21 21 21 21 21 21 21 21 21 21 21 21 21
19 20 20 20 20 20 21 21 21 21 21 20 21 21 20 20 19 19 19 20 20 20 20 20 21 21 21 21 22 21 21 21 21 22 22 21 21 22 22 22 21 21 21
20 20 21 21 21 21 21 22 22 22 22 22 22 22 22 22 21 21 21 21 21 22 22 22 23 22 23 23 22 23 22 22 22 22 22 22 22 22 23 23 23 23 23
20 21 21 21 22 22 22 22 23 23 23 23 23 23 23 23 23 23 23 24 24 24 24 24 24 24 24 24 24 24 24 24 24 24 24 24 24 25 25 24 24 24 24
21 21 22 22 22 23 23 24 24 24 24 24 24 24 24 25 25 25 25 25 25 25 25 26 26 26 26 26 26 26 26 25 25 25 26 26 26 26 26 26 26 26 26
22 22 22 23 23 23 23 24 24 24 24 25 25 25 25 26 27 27 27 27 27 27 26 25 26 27 27 27 27 27 27 27 26 27 27 27 27 27 26 27 27 27 27
23 23 24 24 23 23 23 24 24 24 25 25 25 26 27 27 28 28 28 28 28 27 27 27 26 27 27 27 28 29 29 29 28 28 28 28 28 27 28 28 28 28 28
24 24 24 24 23 23 24 24 25 25 25 26 27 27 28 28 28 28 28 29 29 29 28 28 28 27 28 28 29 29 30 30 29 29 29 28 28 29 30 30 29 29 29
24 24 24 24 25 24 25 25 26 26 26 27 27 28 28 28 29 29 29 29 29 29 29 29 29 29 29 28 29 29 30 31 30 30 30 29 29 30 30 30 30 30 30
25 25 25 25 25 25 25 25 26 26 26 27 28 28 28 28 29 29 30 30 30 30 31 31 31 30 30 30 30 30 30 30 30 30 30 30 30 30 30 30 31 30 31
Wind_Direction
149 152 154 201 209 215 212 208 207 210 216 217 219 227 237 239 232 224 226 239 248 256 265 270 279 291 292 288 286 295 300 294 291 287 282 285 288 282 274 269 269 267 265
191 199 202 230 232 222 218 217 220 224 230 233 234 241 254 255 245 239 245 248 255 258 263 270 275 283 289 288 288 290 293 296 293 282 284 283 282 280 272 268 270 270 268
213 226 240 251 247 235 232 232 235 237 236 237 247 252 257 261 256 259 262 261 261 266 270 274 275 276 281 282 281 285 285 287 287 283 287 288 283 279 275 271 272 272 269
252 257 260 257 257 250 250 247 243 243 245 245 258 264 267 270 262 266 267 263 262 265 270 278 280 284 283 286 286 285 287 287 285 286 289 290 288 282 277 276 276 275 271
270 275 267 261 264 264 259 252 247 247 250 250 258 258 262 269 270 270 268 265 265 269 271 277 281 285 286 286 291 288 286 285 285 285 288 288 288 284 278 275 277 276 275
288 282 279 280 272 268 268 266 260 258 257 260 261 262 266 268 273 276 274 269 268 270 273 279 282 285 286 282 287 291 289 287 283 282 286 286 286 285 280 278 275 274 273
287 286 277 276 275 274 275 275 269 267 263 263 265 265 269 272 274 276 275 272 270 270 277 281 281 281 287 285 286 289 289 288 286 286 283 284 285 284 279 280 278 276 273
281 278 274 277 280 284 281 279 277 271 267 266 268 268 269 271 275 276 275 274 277 277 277 278 278 281 284 285 285 286 287 285 283 285 285 284 284 285 281 279 279 278 274
280 282 280 278 283 286 285 284 282 282 273 267 270 273 270 271 272 276 277 276 277 278 279 276 276 280 282 283 284 286 287 287 288 286 284 284 284 282 280 281 279 276 274
272 275 277 279 282 283 285 290 288 283 284 273 269 270 271 270 271 274 276 278 279 280 280 277 277 279 280 282 282 284 285 284 285 286 284 283 282 284 283 282 277 274 273
271 271 271 274 277 282 285 289 289 284 285 286 279 274 273 271 273 274 276 276 277 279 279 279 279 281 281 281 282 282 281 280 281 283 281 280 282 281 280 278 276 274 272
277 275 273 272 276 280 282 282 282 281 283 285 285 279 277 274 273 274 276 277 277 279 280 279 281 281 281 281 281 280 280 279 281 282 283 282 279 278 280 280 278 275 274
279 277 277 275 276 278 280 282 282 282 282 283 283 282 278 277 275 275 277 277 279 282 280 279 280 280 281 281 280 278 279 281 282 282 283 283 281 280 280 278 278 276 275
279 276 276 276 277 277 278 278 279 281 281 280 279 280 279 279 278 278 278 280 280 281 281 281 280 280 280 280 280 280 279 279 279 279 280 280 279 281 279 276 278 276 276
280 279 276 277 278 279 278 276 276 278 280 278 274 276 279 282 283 283 283 284 284 283 280 281 281 281 281 281 281 281 281 281 278 276 278 280 281 284 283 278 277 277 276
279 278 279 278 278 279 278 276 276 276 278 277 274 274 276 280 282 284 282 281 283 284 282 280 280 282 283 282 281 281 279 279 280 279 280 281 284 285 285 282 282 282 282
278 278 278 279 279 279 277 277 277 276 278 278 276 276 275 277 281 281 279 281 282 284 284 281 281 283 283 281 281 282 280 279 281 281 280 281 281 281 283 283 282 282 282
275 275 277 280 280 279 277 277 278 277 278 277 277 277 278 278 280 278 278 280 282 283 284 281 281 282 284 282 281 282 282 280 281 282 282 281 280 281 282 282 282 281 280
281 278 276 279 280 278 277 277 278 278 276 277 277 277 276 277 279 280 281 282 282 281 282 281 280 280 282 282 282 282 281 281 280 282 283 281 279 279 281 282 282 281 280
281 279 278 278 278 278 278 278 278 277 277 277 277 277 278 278 279 279 281 282 281 279 280 281 280 279 280 280 280 279 279 279 280 280 281 280 279 280 279 279 279 279 279
283 280 278 278 278 279 279 277 276 276 276 277 277 277 278 279 281 282 281 284 282 281 281 279 278 278 279 278 277 278 277 277 278 279 280 280 280 281 280 278 277 278 278
285 283 280 279 279 280 281 278 276 276 276 277 277 277 278 279 281 283 283 283 283 283 283 283 280 278 279 278 277 278 277 276 277 278 279 279 279 279 279 279 278 278 278
283 282 280 281 281 280 278 278 278 278 278 277 278 278 278 279 281 282 282 282 282 282 283 282 281 282 281 279 278 277 276 276 276 276 278 278 278 279 280 280 279 277 277
283 282 279 280 281 281 280 279 279 279 279 279 278 278 278 278 280 281 282 281 282 282 282 283 282 282 282 280 279 279 276 275 274 274 276 276 277 277 278 278 278 278 276
283 282 279 279 280 280 280 279 278 279 280 280 279 279 278 277 279 281 281 282 283 282 281 282 282 282 282 282 281 280 278 276 274 274 274 275 276 276 276 276 276 276 276
281 281 280 278 279 279 279 279 279 279 280 281 281 280 280 278 279 279 280 281 283 283 281 281 281 281 281 281 281 280 279 277 277 275 275 275 276 275 276 276 277 277 277
Height
5889 5889 5889 5889 5889 5890 5890 5891 5891 5892 5892 5892 5892 5892 5892 5892 5892 5892 5893 5893 5893 5893 5893 5893 5893 5892 5892 5891 5891 5890 5890 5889 5889 5888 5888 5887 5887 5887 5887 5887 5887 5887 5887
5888 5889 5889 5889 5889 5889 5889 5890 5890 5891 5891 5891 5891 5891 5892 5892 5891 5892 5892 5892 5892 5892 5891 5891 5891 5891 5890 5890 5889 5889 5889 5888 5887 5887 5887 5886 5886 5885 5885 5885 5885 5885 5885
5888 5888 5888 5888 5888 5888 5888 5889 5889 5890 5890 5890 5890 5891 5891 5891 5891 5891 5891 5891 5891 5890 5890 5889 5889 5889 5889 5888 5888 5887 5887 5886 5886 5886 5885 5884 5884 5883 5883 5883 5883 5883 5883
5888 5888 5888 5888 5888 5888 5888 5888 5888 5889 5889 5889 5890 5890 5890 5889 5889 5889 5889 5889 5889 5889 5888 5888 5888 5887 5887 5887 5886 5886 5885 5884 5884 5883 5883 5883 5882 5882 5881 5881 5881 5881 5880
5888 5887 5887 5887 5887 5887 5887 5887 5887 5888 5888 5888 5888 5888 5888 5888 5888 5888 5888 5887 5887 5887 5887 5887 5886 5886 5885 5885 5884 5884 5883 5882 5882 5881 5881 5881 5880 5879 5879 5879 5879 5878 5878
5887 5887 5886 5886 5886 5886 5886 5886 5886 5886 5886 5887 5887 5887 5887 5887 5886 5886 5886 5886 5885 5885 5885 5885 5884 5884 5884 5883 5883 5882 5881 5880 5879 5879 5879 5878 5878 5877 5876 5876 5876 5876 5876
5886 5886 5885 5885 5885 5885 5885 5885 5885 5885 5885 5885 5885 5885 5885 5885 5885 5884 5884 5884 5883 5883 5883 5882 5882 5881 5881 5881 5880 5879 5878 5878 5877 5876 5876 5875 5875 5874 5874 5874 5873 5873 5873
5885 5885 5884 5884 5884 5883 5883 5883 5883 5883 5883 5883 5883 5883 5883 5883 5882 5882 5881 5881 5881 5881 5880 5880 5879 5879 5878 5878 5877 5876 5875 5875 5874 5873 5873 5872 5872 5871 5870 5870 5870 5870 5870
5884 5883 5883 5883 5882 5882 5882 5881 5881 5881 5881 5880 5880 5880 5880 5880 5880 5880 5879 5878 5878 5877 5877 5877 5877 5876 5875 5875 5874 5873 5872 5872 5871 5870 5869 5869 5869 5868 5867 5866 5866 5866 5866
5882 5882 5881 5881 5881 5881 5880 5880 5879 5878 5878 5877 5877 5877 5877 5877 5877 5877 5876 5875 5875 5874 5874 5874 5873 5873 5872 5871 5870 5870 5869 5868 5867 5866 5866 5865 5865 5864 5863 5862 5862 5862 5862
5880 5880 5879 5879 5879 5878 5878 5878 5877 5876 5875 5875 5874 5874 5874 5874 5873 5873 5873 5872 5872 5871 5870 5869 5869 5869 5868 5867 5866 5866 5865 5864 5863 5863 5862 5861 5860 5859 5859 5858 5858 5858 5858
5877 5877 5877 5877 5876 5876 5875 5875 5874 5874 5873 5872 5872 5871 5871 5870 5870 5869 5869 5869 5868 5867 5866 5865 5865 5864 5863 5863 5862 5861 5860 5860 5859 5859 5858 5857 5856 5855 5854 5854 5853 5853 5853
5875 5875 5874 5874 5873 5873 5872 5872 5871 5871 5870 5869 5869 5868 5867 5867 5866 5866 5865 5865 5864 5863 5862 5862 5861 5860 5859 5858 5857 5857 5856 5855 5855 5854 5853 5853 5852 5851 5850 5849 5849 5848 5848
5872 5872 5871 5871 5870 5869 5869 5868 5868 5867 5867 5866 5865 5865 5864 5863 5862 5862 5860 5860 5860 5859 5858 5857 5856 5855 5854 5853 5853 5852 5851 5851 5850 5849 5849 5848 5847 5846 5845 5844 5844 5843 5843
5868 5867 5867 5866 5866 5865 5865 5864 5864 5863 5863 5862 5861 5861 5860 5859 5858 5857 5856 5855 5855 5854 5853 5852 5851 5850 5849 5848 5847 5846 5846 5845 5845 5844 5844 5843 5842 5841 5840 5839 5839 5838 5838
5863 5863 5862 5862 5861 5860 5860 5859 5859 5859 5858 5857 5856 5856 5855 5854 5853 5852 5851 5850 5850 5849 5848 5847 5846 5845 5844 5843 5842 5841 5840 5840 5839 5839 5838 5837 5837 5836 5835 5835 5834 5833 5833
5858 5857 5857 5856 5856 5855 5854 5854 5854 5853 5853 5852 5851 5851 5850 5849 5848 5847 5846 5845 5844 5843 5843 5842 5840 5839 5838 5837 5836 5835 5835 5834 5833 5833 5832 5831 5831 5831 5830 5829 5829 5828 5828
5852 5851 5851 5850 5850 5849 5849 5848 5848 5847 5847 5847 5846 5845 5845 5844 5843 5842 5841 5840 5839 5838 5837 5836 5835 5834 5833 5831 5830 5830 5829 5828 5828 5827 5826 5825 5825 5825 5824 5824 5823 5822 5822
5846 5845 5845 5844 5844 5843 5843 5842 5842 5841 5841 5841 5840 5840 5839 5838 5837 5836 5835 5834 5833 5832 5831 5830 5829 5828 5827 5825 5824 5824 5823 5822 5821 5821 5820 5819 5819 5818 5818 5818 5817 5816 5816
5840 5839 5839 5838 5838 5837 5837 5836 5835 5835 5834 5834 5834 5833 5833 5832 5831 5830 5829 5828 5827 5826 5825 5824 5822 5821 5820 5819 5818 5817 5817 5816 5815 5814 5814 5813 5812 5812 5811 5811 5810 5810 5809
5834 5833 5833 5832 5831 5830 5830 5829 5829 5828 5828 5828 5827 5827 5826 5825 5824 5823 5822 5821 5820 5819 5818 5816 5815 5814 5813 5812 5811 5811 5810 5809 5808 5807 5807 5806 5805 5804 5804 5803 5803 5802 5802
5828 5827 5826 5825 5824 5824 5823 5822 5821 5821 5821 5821 5820 5820 5819 5818 5817 5816 5815 5814 5813 5812 5811 5809 5808 5807 5806 5805 5804 5803 5802 5802 5801 5800 5799 5798 5797 5797 5796 5796 5795 5795 5794
5822 5821 5820 5819 5817 5817 5816 5815 5815 5814 5814 5814 5813 5813 5812 5811 5810 5809 5808 5807 5805 5804 5803 5802 5800 5799 5798 5797 5796 5795 5794 5793 5793 5792 5791 5790 5789 5789 5788 5788 5787 5786 5785
5814 5813 5812 5812 5811 5810 5809 5808 5808 5807 5807 5806 5805 5805 5804 5803 5802 5801 5800 5799 5797 5796 5795 5793 5792 5791 5789 5788 5787 5786 5785 5784 5784 5783 5783 5783 5782 5781 5780 5779 5778 5778 5777
5807 5806 5805 5804 5804 5803 5802 5801 5800 5799 5799 5798 5797 5796 5795 5794 5794 5793 5792 5791 5790 5788 5786 5785 5783 5782 5780 5779 5778 5777 5776 5775 5775 5774 5774 5774 5773 5772 5771 5770 5769 5769 5768
5799 5798 5797 5797 5796 5795 5795 5794 5793 5792 5791 5790 5789 5788 5787 5786 5785 5784 5783 5782 5781 5780 5778 5776 5775 5773 5772 5770 5769 5768 5767 5766 5766 5766 5765 5764 5763 5762 5762 5762 5760 5759 5759